Date String (YYYY-MM-DD hh:mm:ss) UTC,Instrument flags,absolute air pressure of the measurement (hPa),sample flow rate (lpm),inlet stack bypass flow (lpm),air temperature of the measurement (°C),ambient temperature measured by the external sensor (°C),aerosol sample conditioner tube jacket temperature (°C),OPC LED temperature (°C),internal box temperature (°C),relative humidity of the measurement (%),span deviation,mass concentration of particles derived from Lorenz-Mie calculation of OPC scattering (μg/m³),mass concentration of particles derived from Lorenz-Mie calculation of OPC scattering (μg/m³),mass concentration of particles derived from Lorenz-Mie calculation of OPC scattering (μg/m³)
DateTimeUTC,F1_M11,P_M11,Q1_M11,Q2_M11,T1_M11,T2_M11,T3_M11,T4_M11,T5_M11,U1_M11,ZSPAN_M11,X2_M11,X0_M11,X1_M11
2023-12-15 02:00:00,SystemResetWarning,0832.0,5.00,000.00,018.9,018.0,000.0,027.3,020.1,23.4,0000.7,0019.34,0028.62,0018.44
2023-12-15 02:01:00,SystemResetWarning,0832.0,4.99,000.00,018.9,018.0,000.0,027.3,020.0,23.5,0000.7,0019.30,0028.44,0018.44
2023-12-15 02:02:00,SystemResetWarning,0832.1,5.00,000.00,018.9,018.0,000.0,027.3,020.0,23.5,0000.7,0019.28,0028.32,0018.44
2023-12-15 02:03:00,SystemResetWarning,0832.1,5.00,000.00,018.9,018.0,000.0,027.3,020.0,23.5,0000.8,0019.30,0028.37,0018.44
2023-12-15 02:04:00,SystemResetWarning,0832.1,5.00,000.00,018.9,018.0,000.0,027.3,020.0,23.5,0000.8,0019.28,0028.29,0018.45
2023-12-15 02:05:00,SystemResetWarning,0832.1,5.00,000.00,018.9,018.0,000.0,027.3,020.0,23.6,0000.8,0019.28,0028.27,0018.46
2023-12-15 02:06:00,SystemResetWarning,0832.1,5.00,000.00,018.9,018.0,000.0,027.3,020.0,23.6,0000.9,0019.38,0028.47,0018.51
2023-12-15 02:07:00,SystemResetWarning,0832.1,5.01,000.00,018.9,018.0,000.0,027.3,020.0,23.6,0000.8,0019.37,0028.49,0018.48
2023-12-15 02:08:00,SystemResetWarning,0832.0,5.00,000.00,018.8,018.0,000.0,027.3,020.0,23.6,0000.8,0019.37,0028.82,0018.45
2023-12-15 02:09:00,SystemResetWarning,0832.1,5.00,000.00,018.8,018.0,000.0,027.3,020.0,23.6,0000.7,0019.36,0028.66,0018.46
2023-12-15 02:10:00,SystemResetWarning,0832.1,5.00,000.00,018.8,018.0,000.0,027.3,020.0,23.5,0000.9,0019.36,0028.24,0018.50
2023-12-15 02:11:00,SystemResetWarning,0832.0,5.00,000.00,018.8,018.0,000.0,027.3,020.0,23.5,0000.9,0019.46,0028.13,0018.58
2023-12-15 02:12:00,SystemResetWarning,0832.0,5.00,000.00,018.8,018.0,000.0,027.2,020.0,23.5,0000.8,0019.54,0027.73,0018.62
2023-12-15 02:13:00,SystemResetWarning,0832.0,5.00,000.00,018.8,018.0,000.0,027.3,020.0,23.5,0000.7,0019.55,0027.74,0018.64
2023-12-15 02:14:00,SystemResetWarning,0832.0,5.00,000.00,018.8,018.0,000.0,027.3,020.0,23.5,0000.7,0019.58,0028.03,0018.67
2023-12-15 02:15:00,SystemResetWarning,0832.0,5.00,000.00,018.8,018.0,000.0,027.3,020.0,23.5,0000.7,0019.62,0028.18,0018.71
2023-12-15 02:16:00,SystemResetWarning,0832.0,5.00,000.00,018.8,018.0,000.0,027.3,020.0,23.5,0000.8,0019.67,0028.30,0018.75
2023-12-15 02:17:00,SystemResetWarning,0832.0,5.00,000.00,018.8,018.0,000.0,027.3,020.0,23.5,0000.8,0019.60,0028.11,0018.73
2023-12-15 02:18:00,SystemResetWarning,0832.0,5.00,000.00,018.8,018.0,000.0,027.3,020.0,23.5,0000.9,0019.57,0028.02,0018.73
2023-12-15 02:19:00,SystemResetWarning,0832.0,5.00,000.00,018.8,018.0,000.0,027.3,020.0,23.5,0000.8,0019.54,0027.76,0018.73
2023-12-15 02:20:00,SystemResetWarning,0832.1,5.01,000.00,018.8,017.9,000.0,027.3,020.0,23.5,0001.0,0019.52,0027.90,0018.70
2023-12-15 02:21:00,SystemResetWarning,0832.0,5.00,000.00,018.8,017.9,000.0,027.3,020.0,23.5,0000.9,0019.50,0027.83,0018.68
2023-12-15 02:22:00,SystemResetWarning,0832.0,5.00,000.00,018.8,017.9,000.0,027.3,020.0,23.5,0000.7,0019.48,0027.56,0018.63
2023-12-15 02:23:00,SystemResetWarning,0832.0,5.00,000.00,018.8,017.9,000.0,027.3,020.0,23.4,0000.6,0019.41,0027.41,0018.57
2023-12-15 02:24:00,SystemResetWarning,0832.0,5.00,000.00,018.8,017.9,000.0,027.3,020.0,23.4,0000.7,0019.40,0027.37,0018.54
2023-12-15 02:25:00,SystemResetWarning,0832.0,5.00,000.00,018.8,017.9,000.0,027.3,020.0,23.4,0000.7,0019.39,0027.07,0018.50
2023-12-15 02:26:00,SystemResetWarning,0832.0,5.00,000.00,018.8,017.9,000.0,027.3,020.0,23.4,0000.7,0019.34,0026.86,0018.46
2023-12-15 02:27:00,SystemResetWarning,0832.0,5.00,000.00,018.8,017.9,000.0,027.3,020.0,23.4,0000.6,0019.29,0026.77,0018.41
2023-12-15 02:28:00,SystemResetWarning,0832.0,5.01,000.00,018.8,017.9,000.0,027.3,020.0,23.4,0000.7,0019.28,0027.04,0018.37
2023-12-15 02:29:00,SystemResetWarning,0832.0,5.01,000.00,018.8,017.8,000.0,027.3,020.0,23.4,0000.6,0019.29,0027.31,0018.31
2023-12-15 02:30:00,SystemResetWarning,0832.0,4.99,000.00,018.8,017.8,000.0,027.3,020.0,23.5,0000.5,0019.30,0027.75,0018.31
2023-12-15 02:31:00,SystemResetWarning,0832.0,5.00,000.00,018.8,017.8,000.0,027.3,020.0,23.5,0000.4,0019.31,0027.65,0018.32
2023-12-15 02:32:00,SystemResetWarning,0832.0,5.00,000.00,018.8,017.8,000.0,027.3,020.0,23.5,0000.2,0019.32,0027.89,0018.30
2023-12-15 02:33:00,SystemResetWarning,0832.0,4.99,000.00,018.8,017.8,000.0,027.3,020.0,23.5,0000.3,0019.33,0028.03,0018.32
2023-12-15 02:34:00,SystemResetWarning,0832.0,5.00,000.00,018.8,017.8,000.0,027.3,020.0,23.4,0000.5,0019.31,0027.92,0018.32
2023-12-15 02:35:00,SystemResetWarning,0832.0,5.00,000.00,018.8,017.8,000.0,027.3,020.0,23.4,0000.4,0019.29,0028.02,0018.29
2023-12-15 02:36:00,SystemResetWarning,0832.0,5.00,000.00,018.8,017.8,000.0,027.3,020.0,23.3,0000.4,0019.28,0027.95,0018.30
2023-12-15 02:37:00,SystemResetWarning,0832.0,5.00,000.00,018.8,017.8,000.0,027.2,020.0,23.2,0000.4,0019.35,0028.09,0018.33
2023-12-15 02:38:00,SystemResetWarning,0832.0,5.00,000.00,018.8,017.8,000.0,027.2,020.0,23.2,0000.3,0019.40,0028.20,0018.33
2023-12-15 02:39:00,SystemResetWarning,0832.0,5.00,000.00,018.8,017.8,000.0,027.2,020.0,23.1,0000.3,0019.41,0027.86,0018.34
2023-12-15 02:40:00,SystemResetWarning,0832.1,5.00,000.00,018.8,017.8,000.0,027.2,020.0,23.0,0000.2,0019.36,0027.67,0018.34
2023-12-15 02:41:00,SystemResetWarning,0832.0,5.00,000.00,018.8,017.8,000.0,027.2,020.0,23.0,0000.4,0019.34,0027.89,0018.37
2023-12-15 02:42:00,SystemResetWarning,0832.1,5.00,000.00,018.8,017.8,000.0,027.2,020.0,22.9,0000.5,0019.35,0028.28,0018.40
2023-12-15 02:43:00,SystemResetWarning,0832.0,5.00,000.00,018.8,017.8,000.0,027.2,020.0,22.9,0000.6,0019.33,0028.04,0018.40
2023-12-15 02:44:00,SystemResetWarning,0832.0,5.00,000.00,018.8,017.8,000.0,027.2,020.0,22.9,0000.7,0019.35,0027.82,0018.40
2023-12-15 02:45:00,SystemResetWarning,0832.0,5.00,000.00,018.8,017.8,000.0,027.2,020.0,22.9,0000.6,0019.43,0028.01,0018.43
2023-12-15 02:46:00,SystemResetWarning,0832.0,5.00,000.00,018.8,017.8,000.0,027.2,020.0,23.0,0000.7,0019.51,0028.08,0018.46
2023-12-15 02:47:00,SystemResetWarning,0832.0,5.00,000.00,018.8,017.8,000.0,027.2,020.0,23.0,0000.7,0019.54,0028.14,0018.51
2023-12-15 02:48:00,SystemResetWarning,0832.0,5.00,000.00,018.8,017.8,000.0,027.2,020.0,22.9,0000.9,0019.54,0028.13,0018.53
2023-12-15 02:49:00,SystemResetWarning,0832.1,5.00,000.00,018.8,017.8,000.0,027.2,020.0,22.9,0001.0,0019.50,0028.06,0018.52
2023-12-15 02:50:00,SystemResetWarning,0832.1,5.00,000.00,018.8,017.8,000.0,027.2,020.0,22.8,0001.1,0019.50,0028.38,0018.53
2023-12-15 02:51:00,SystemResetWarning,0832.0,5.00,000.00,018.8,017.8,000.0,027.2,020.0,22.8,0001.2,0019.56,0028.55,0018.55
2023-12-15 02:52:00,SystemResetWarning,0832.0,5.00,000.00,018.8,017.8,000.0,027.2,020.0,22.9,0001.1,0019.57,0028.78,0018.53
2023-12-15 02:53:00,SystemResetWarning,0832.0,5.00,000.00,018.8,017.8,000.0,027.2,020.0,22.9,0001.1,0019.60,0028.33,0018.53
2023-12-15 02:54:00,SystemResetWarning,0832.0,5.01,000.00,018.8,017.8,000.0,027.2,020.0,22.9,0001.2,0019.63,0027.96,0018.54
2023-12-15 02:55:00,SystemResetWarning,0832.0,5.01,000.00,018.8,017.8,000.0,027.2,020.0,22.9,0001.2,0019.63,0027.84,0018.54
2023-12-15 02:56:00,SystemResetWarning,0832.0,5.00,000.00,018.8,017.8,000.0,027.2,020.0,22.9,0001.2,0019.62,0027.89,0018.53
2023-12-15 02:57:00,SystemResetWarning,0832.0,5.00,000.00,018.8,017.8,000.0,027.2,020.0,22.9,0001.0,0019.60,0027.78,0018.55
2023-12-15 02:58:00,SystemResetWarning,0832.1,5.01,000.00,018.8,017.8,000.0,027.2,020.0,23.0,0001.0,0019.63,0027.98,0018.56
2023-12-15 02:59:00,SystemResetWarning,0832.1,5.00,000.00,018.8,017.8,000.0,027.2,020.0,23.0,0000.8,0019.61,0028.17,0018.54
